EZY53DA EGAA-LGKR

Flight info

Callsign EZY53DA
Flight time 3h 18m
Altitude 37000
Route LISBO DCT RINGA DCT BABGU DCT ETIGA DCT INKOB DCT NAPEX M16 DOLAS DCT NAVPI DCT DOJOH DCT DODEN DCT NEGIX DCT DINKU M867 XERUM DCT BAVAX DCT RADIZ DCT GORPA DCT NIVES DCT NAVSU DCT TAZ DCT RODON DCT LIMJA N732 PITAS
Aircraft A320/M-SDE3FGHIRWY/LB1

Departure

Time 2026-04-27 10:29
Airport Belfast International Airport (EGAA)

Arrival

Time 2026-04-27 13:48
Airport Corfu Ioannis Kapodistrias International Airport (LGKR)
Time Latitude Longitude Altitude Speed Heading
2026-04-27 10:12 54.66144 -6.21385 272 ft 0 kts 245°
2026-04-27 10:21 54.66146 -6.21378 272 ft 3 kts 245°
2026-04-27 10:21 54.66159 -6.21337 276 ft 4 kts 233°
2026-04-27 10:22 54.66176 -6.21309 272 ft 4 kts 186°
2026-04-27 10:22 54.66186 -6.21310 277 ft 0 kts 155°
2026-04-27 10:25 54.66171 -6.21298 274 ft 7 kts 155°
2026-04-27 10:26 54.66108 -6.21247 272 ft 10 kts 155°
2026-04-27 10:26 54.66054 -6.21199 272 ft 8 kts 138°
2026-04-27 10:26 54.66062 -6.21101 274 ft 12 kts 66°
2026-04-27 10:26 54.66102 -6.20953 274 ft 13 kts 65°
2026-04-27 10:27 54.66138 -6.20816 272 ft 13 kts 65°
2026-04-27 10:27 54.66186 -6.20640 272 ft 16 kts 65°
2026-04-27 10:27 54.66230 -6.20476 275 ft 14 kts 65°
2026-04-27 10:27 54.66280 -6.20285 272 ft 22 kts 65°
2026-04-27 10:28 54.66351 -6.20023 274 ft 25 kts 64°
2026-04-27 10:28 54.66385 -6.19764 276 ft 21 kts 115°
2026-04-27 10:28 54.66286 -6.19649 274 ft 12 kts 169°
2026-04-27 10:28 54.66244 -6.19741 272 ft 13 kts 245°
2026-04-27 10:29 54.66155 -6.20072 272 ft 60 kts 245°
2026-04-27 10:29 54.65885 -6.21080 273 ft 123 kts 245°
2026-04-27 10:29 54.65458 -6.22673 453 ft 155 kts 248°
2026-04-27 10:29 54.64993 -6.24364 1134 ft 158 kts 247°
2026-04-27 10:30 54.64498 -6.26122 1658 ft 174 kts 248°
2026-04-27 10:30 54.63871 -6.28065 2012 ft 200 kts 230°
2026-04-27 10:30 54.62556 -6.29189 2351 ft 232 kts 185°
2026-04-27 10:30 54.60931 -6.28504 2773 ft 257 kts 146°
2026-04-27 10:31 54.59625 -6.26298 3440 ft 269 kts 126°
2026-04-27 10:31 54.58567 -6.23618 4358 ft 271 kts 120°
2026-04-27 10:31 54.57558 -6.20847 5311 ft 275 kts 122°
2026-04-27 10:31 54.56513 -6.18113 6176 ft 279 kts 123°
2026-04-27 10:32 54.55378 -6.15353 6983 ft 285 kts 126°
2026-04-27 10:32 54.54174 -6.12605 7757 ft 290 kts 127°
2026-04-27 10:32 54.52926 -6.09825 8540 ft 296 kts 123°
2026-04-27 10:32 54.51942 -6.06701 9298 ft 299 kts 111°
2026-04-27 10:33 54.51140 -6.03362 10116 ft 304 kts 110°
2026-04-27 10:33 54.50319 -5.99953 10703 ft 317 kts 110°
2026-04-27 10:33 54.49446 -5.96325 10943 ft 340 kts 110°
2026-04-27 10:33 54.48516 -5.92468 11376 ft 354 kts 110°
2026-04-27 10:34 54.47559 -5.88528 12038 ft 360 kts 110°
2026-04-27 10:34 54.46583 -5.84533 12760 ft 365 kts 110°
2026-04-27 10:34 54.45593 -5.80490 13456 ft 369 kts 109°
2026-04-27 10:34 54.44588 -5.76391 14156 ft 374 kts 109°
2026-04-27 10:35 54.43573 -5.72252 14763 ft 378 kts 109°
2026-04-27 10:35 54.42545 -5.68072 15375 ft 382 kts 109°
2026-04-27 10:35 54.41505 -5.63846 15978 ft 386 kts 109°
2026-04-27 10:35 54.40453 -5.59584 16585 ft 390 kts 110°
2026-04-27 10:36 54.39174 -5.55427 17174 ft 398 kts 120°
2026-04-27 10:36 54.37595 -5.51495 17771 ft 402 kts 122°
2026-04-27 10:36 54.35989 -5.47542 18389 ft 405 kts 122°
2026-04-27 10:36 54.34373 -5.43564 18948 ft 409 kts 122°
2026-04-27 10:37 54.32739 -5.39550 19473 ft 412 kts 122°
2026-04-27 10:37 54.31090 -5.35511 19991 ft 415 kts 121°
2026-04-27 10:37 54.29427 -5.31445 20520 ft 420 kts 121°
2026-04-27 10:37 54.27736 -5.27334 20998 ft 424 kts 122°
2026-04-27 10:38 54.25957 -5.23277 21511 ft 429 kts 124°
2026-04-27 10:38 54.24103 -5.19333 22020 ft 433 kts 126°
2026-04-27 10:38 54.22161 -5.15373 22531 ft 437 kts 127°
2026-04-27 10:38 54.20182 -5.11405 23042 ft 440 kts 127°
2026-04-27 10:39 54.18192 -5.07406 23535 ft 443 kts 126°
2026-04-27 10:39 54.16204 -5.03366 24005 ft 446 kts 126°
2026-04-27 10:39 54.14214 -4.99278 24389 ft 449 kts 125°
2026-04-27 10:39 54.12227 -4.95171 24852 ft 449 kts 125°
2026-04-27 10:40 54.10238 -4.91053 25273 ft 451 kts 125°
2026-04-27 10:40 54.08236 -4.86914 25662 ft 453 kts 125°
2026-04-27 10:40 54.06906 -4.84170 25912 ft 455 kts 125°
2026-04-27 10:40 54.04888 -4.80015 26286 ft 457 kts 124°
2026-04-27 10:41 54.02217 -4.74375 26771 ft 459 kts 123°
2026-04-27 10:41 54.00927 -4.71524 27003 ft 461 kts 122°
2026-04-27 10:41 53.98996 -4.67145 27296 ft 464 kts 121°
2026-04-27 10:41 53.97074 -4.62722 27634 ft 467 kts 121°
2026-04-27 10:42 53.95139 -4.58279 27972 ft 469 kts 121°
2026-04-27 10:42 53.93180 -4.53839 28312 ft 471 kts 121°
2026-04-27 10:42 53.91194 -4.49392 28646 ft 474 kts 122°
2026-04-27 10:42 53.89208 -4.44940 29036 ft 472 kts 119°
2026-04-27 10:43 53.87505 -4.40226 29392 ft 466 kts 110°
2026-04-27 10:43 53.86243 -4.35219 29706 ft 459 kts 101°
2026-04-27 10:43 53.85343 -4.30047 30009 ft 458 kts 98°
2026-04-27 10:43 53.84467 -4.24849 30310 ft 460 kts 98°
2026-04-27 10:44 53.83575 -4.19641 30571 ft 462 kts 99°
2026-04-27 10:44 53.82670 -4.14407 30790 ft 465 kts 99°
2026-04-27 10:44 53.81757 -4.09139 30980 ft 468 kts 99°
2026-04-27 10:44 53.80839 -4.03849 31197 ft 469 kts 99°
2026-04-27 10:45 53.79916 -3.98545 31421 ft 471 kts 99°
2026-04-27 10:45 53.78991 -3.93235 31657 ft 471 kts 99°
2026-04-27 10:45 53.78062 -3.87928 31977 ft 470 kts 99°
2026-04-27 10:45 53.77133 -3.82637 32289 ft 469 kts 99°
2026-04-27 10:46 53.76203 -3.77359 32608 ft 468 kts 99°
2026-04-27 10:46 53.75273 -3.72097 32913 ft 467 kts 99°
2026-04-27 10:46 53.74342 -3.66842 33225 ft 466 kts 100°
2026-04-27 10:46 53.73414 -3.61605 33525 ft 466 kts 100°
2026-04-27 10:47 53.72482 -3.56343 33735 ft 468 kts 100°
2026-04-27 10:47 53.71545 -3.51081 34004 ft 468 kts 101°
2026-04-27 10:47 53.70603 -3.45827 34291 ft 468 kts 101°
2026-04-27 10:47 53.69670 -3.40649 34547 ft 467 kts 101°
2026-04-27 10:48 53.68723 -3.35412 34823 ft 465 kts 102°
2026-04-27 10:48 53.67778 -3.30203 35120 ft 464 kts 102°
2026-04-27 10:48 53.66835 -3.25008 35368 ft 463 kts 102°
2026-04-27 10:48 53.65892 -3.19814 35584 ft 463 kts 102°
2026-04-27 10:49 53.64951 -3.14628 35796 ft 463 kts 102°
2026-04-27 10:49 53.64007 -3.09439 36003 ft 463 kts 103°
2026-04-27 10:49 53.63059 -3.04248 36144 ft 465 kts 103°
2026-04-27 10:49 53.62103 -2.99044 36308 ft 466 kts 103°
2026-04-27 10:50 53.61140 -2.93833 36498 ft 466 kts 103°
2026-04-27 10:50 53.60176 -2.88629 36685 ft 466 kts 103°
2026-04-27 10:50 53.59210 -2.83429 36875 ft 466 kts 104°
2026-04-27 10:50 53.58239 -2.78225 37026 ft 466 kts 104°
2026-04-27 10:51 53.57269 -2.73030 37210 ft 466 kts 104°
2026-04-27 10:51 53.56297 -2.67830 37323 ft 466 kts 104°
2026-04-27 10:51 53.54352 -2.57463 37367 ft 465 kts 104°
2026-04-27 10:52 53.52389 -2.47069 37333 ft 467 kts 104°
2026-04-27 10:52 53.50414 -2.36660 37332 ft 468 kts 105°
2026-04-27 10:53 53.47442 -2.21058 37329 ft 468 kts 105°
2026-04-27 10:54 53.45444 -2.10659 37334 ft 468 kts 105°
2026-04-27 10:54 53.43438 -2.00265 37363 ft 469 kts 105°
2026-04-27 10:55 53.41413 -1.89860 37343 ft 470 kts 105°
2026-04-27 10:55 53.39378 -1.79465 37312 ft 470 kts 106°
2026-04-27 10:56 53.37332 -1.69068 37308 ft 470 kts 105°
2026-04-27 10:56 53.35278 -1.58671 37303 ft 470 kts 106°
2026-04-27 10:57 53.33213 -1.48283 37317 ft 470 kts 107°
2026-04-27 10:57 53.31140 -1.37899 37308 ft 471 kts 107°
2026-04-27 10:58 53.29057 -1.27532 37303 ft 471 kts 107°
2026-04-27 10:58 53.26964 -1.17165 37296 ft 471 kts 107°
2026-04-27 10:59 53.24865 -1.06795 37298 ft 471 kts 107°
2026-04-27 10:59 53.22759 -0.96434 37305 ft 471 kts 107°
2026-04-27 11:00 53.20008 -0.80735 37307 ft 469 kts 98°
2026-04-27 11:00 53.18783 -0.70045 37308 ft 469 kts 99°
2026-04-27 11:01 53.17555 -0.59361 37313 ft 469 kts 99°
2026-04-27 11:01 53.16322 -0.48748 37311 ft 469 kts 99°
2026-04-27 11:02 53.15062 -0.38081 37310 ft 469 kts 99°
2026-04-27 11:02 53.13794 -0.27424 37308 ft 469 kts 99°
2026-04-27 11:03 53.12519 -0.16766 37307 ft 469 kts 99°
2026-04-27 11:03 53.11233 -0.06104 37308 ft 469 kts 99°
2026-04-27 11:04 53.09940 0.04541 37300 ft 470 kts 99°
2026-04-27 11:04 53.08634 0.15229 37266 ft 472 kts 99°
2026-04-27 11:05 53.07309 0.25945 37263 ft 473 kts 100°
2026-04-27 11:05 53.05971 0.36674 37264 ft 474 kts 100°
2026-04-27 11:06 53.04623 0.47417 37272 ft 476 kts 100°
2026-04-27 11:06 53.03262 0.58176 37300 ft 476 kts 100°
2026-04-27 11:07 53.01894 0.68941 37297 ft 476 kts 101°
2026-04-27 11:07 53.00513 0.79691 37279 ft 476 kts 101°
2026-04-27 11:08 52.99117 0.90424 37296 ft 475 kts 101°
2026-04-27 11:08 52.97618 1.01087 37301 ft 475 kts 108°
2026-04-27 11:09 52.95334 1.11360 37317 ft 475 kts 110°
2026-04-27 11:09 52.93001 1.21614 37317 ft 475 kts 110°
2026-04-27 11:10 52.90673 1.31853 37315 ft 475 kts 110°
2026-04-27 11:10 52.88335 1.42088 37317 ft 475 kts 110°
2026-04-27 11:11 52.85987 1.52323 37331 ft 475 kts 111°
2026-04-27 11:11 52.83628 1.62542 37325 ft 476 kts 111°
2026-04-27 11:12 52.81257 1.72760 37324 ft 476 kts 111°
2026-04-27 11:12 52.78877 1.82962 37326 ft 476 kts 111°
2026-04-27 11:13 52.76492 1.93164 37330 ft 476 kts 111°
2026-04-27 11:13 52.74093 2.03357 37318 ft 476 kts 112°
2026-04-27 11:14 52.71685 2.13541 37324 ft 477 kts 112°
2026-04-27 11:14 52.69264 2.23720 37324 ft 477 kts 112°
2026-04-27 11:15 52.66858 2.33830 37326 ft 477 kts 112°
2026-04-27 11:15 52.64426 2.43991 37328 ft 477 kts 112°
2026-04-27 11:16 52.61981 2.54141 37337 ft 477 kts 113°
2026-04-27 11:16 52.59524 2.64286 37332 ft 477 kts 113°
2026-04-27 11:17 52.57062 2.74422 37335 ft 477 kts 113°
2026-04-27 11:17 52.54553 2.84518 37337 ft 476 kts 117°
2026-04-27 11:18 52.51512 2.94167 37330 ft 475 kts 119°
2026-04-27 11:18 52.48453 3.03792 37296 ft 476 kts 120°
2026-04-27 11:19 52.45393 3.13404 37316 ft 476 kts 120°
2026-04-27 11:19 52.42323 3.23006 37323 ft 476 kts 120°
2026-04-27 11:20 52.39244 3.32594 37328 ft 475 kts 120°
2026-04-27 11:20 52.36160 3.42158 37330 ft 475 kts 120°
2026-04-27 11:21 52.33065 3.51704 37332 ft 475 kts 120°
2026-04-27 11:21 52.29968 3.61246 37331 ft 475 kts 120°
2026-04-27 11:22 52.26866 3.70779 37330 ft 475 kts 120°
2026-04-27 11:22 52.23747 3.80289 37324 ft 475 kts 120°
2026-04-27 11:23 52.20627 3.89783 37304 ft 475 kts 120°
2026-04-27 11:23 52.17525 3.99200 37306 ft 475 kts 121°
2026-04-27 11:24 52.14387 4.08678 37312 ft 475 kts 121°
2026-04-27 11:24 52.11241 4.18144 37306 ft 476 kts 121°
2026-04-27 11:25 52.08083 4.27598 37309 ft 476 kts 121°
2026-04-27 11:25 52.04918 4.37033 37301 ft 476 kts 121°
2026-04-27 11:26 52.01743 4.46448 37313 ft 475 kts 121°
2026-04-27 11:26 51.99102 4.54261 37307 ft 475 kts 121°
2026-04-27 11:27 51.95924 4.63648 37308 ft 475 kts 121°
2026-04-27 11:27 51.92746 4.73026 37278 ft 474 kts 121°
2026-04-27 11:28 51.89559 4.82379 37282 ft 474 kts 121°
2026-04-27 11:28 51.86359 4.91706 37287 ft 474 kts 121°
2026-04-27 11:29 51.83155 5.01025 37285 ft 474 kts 121°
2026-04-27 11:29 51.79941 5.10331 37282 ft 474 kts 122°
2026-04-27 11:30 51.76723 5.19620 37280 ft 474 kts 122°
2026-04-27 11:30 51.73505 5.28902 37279 ft 474 kts 122°
2026-04-27 11:31 51.70272 5.38159 37280 ft 474 kts 122°
2026-04-27 11:31 51.67031 5.47409 37255 ft 474 kts 122°
2026-04-27 11:32 51.63789 5.56644 37268 ft 474 kts 122°
2026-04-27 11:32 51.60537 5.65866 37272 ft 474 kts 122°
2026-04-27 11:33 51.57276 5.75070 37276 ft 473 kts 122°
2026-04-27 11:33 51.54011 5.84258 37277 ft 474 kts 122°
2026-04-27 11:34 51.50742 5.93441 37278 ft 474 kts 122°
2026-04-27 11:34 51.47460 6.02615 37280 ft 474 kts 122°
2026-04-27 11:35 51.44165 6.11759 37279 ft 474 kts 122°
2026-04-27 11:35 51.40866 6.20897 37264 ft 474 kts 122°
2026-04-27 11:36 51.37570 6.30023 37268 ft 473 kts 122°
2026-04-27 11:36 51.34266 6.39124 37265 ft 473 kts 122°
2026-04-27 11:37 51.30948 6.48219 37271 ft 473 kts 122°
2026-04-27 11:37 51.27628 6.57299 37274 ft 473 kts 122°
2026-04-27 11:38 51.24320 6.66310 37277 ft 473 kts 123°
2026-04-27 11:38 51.20983 6.75375 37274 ft 474 kts 123°
2026-04-27 11:39 51.17636 6.84430 37274 ft 474 kts 123°
2026-04-27 11:39 51.14276 6.93465 37271 ft 474 kts 123°
2026-04-27 11:40 51.10915 7.02497 37244 ft 474 kts 123°
2026-04-27 11:40 51.07551 7.11520 37251 ft 474 kts 123°
2026-04-27 11:41 51.04174 7.20541 37251 ft 475 kts 123°
2026-04-27 11:41 51.00777 7.29553 37253 ft 476 kts 123°
2026-04-27 11:42 50.97374 7.38562 37255 ft 476 kts 123°
2026-04-27 11:42 50.93966 7.47557 37255 ft 476 kts 123°
2026-04-27 11:43 50.90555 7.56536 37259 ft 476 kts 123°
2026-04-27 11:43 50.87136 7.65505 37250 ft 476 kts 123°
2026-04-27 11:44 50.83572 7.74226 37244 ft 473 kts 132°
2026-04-27 11:44 50.78981 7.81558 37242 ft 469 kts 140°
2026-04-27 11:45 50.74995 7.87462 37241 ft 469 kts 140°
2026-04-27 11:45 50.69464 7.95667 37243 ft 470 kts 140°
2026-04-27 11:46 50.64700 8.02723 37237 ft 470 kts 140°
2026-04-27 11:46 50.59980 8.09876 37242 ft 473 kts 134°
2026-04-27 11:47 50.55841 8.17968 37232 ft 475 kts 131°
2026-04-27 11:47 50.51723 8.26074 37237 ft 475 kts 131°
2026-04-27 11:48 50.47588 8.34168 37248 ft 475 kts 131°
2026-04-27 11:48 50.43447 8.42249 37254 ft 475 kts 131°
2026-04-27 11:49 50.39294 8.50322 37250 ft 476 kts 131°
2026-04-27 11:49 50.35026 8.58236 37250 ft 475 kts 135°
2026-04-27 11:50 50.30537 8.65696 37232 ft 474 kts 137°
2026-04-27 11:50 50.25949 8.73085 37244 ft 474 kts 137°
2026-04-27 11:51 50.21407 8.80549 37245 ft 474 kts 136°
2026-04-27 11:52 50.14656 8.91830 37249 ft 474 kts 136°
2026-04-27 11:52 50.10146 8.99320 37247 ft 474 kts 136°
2026-04-27 11:53 50.05616 9.06765 37227 ft 473 kts 136°
2026-04-27 11:53 50.01090 9.14202 37239 ft 473 kts 136°
2026-04-27 11:54 49.96564 9.21631 37238 ft 473 kts 136°
2026-04-27 11:54 49.92032 9.29048 37227 ft 473 kts 136°
2026-04-27 11:55 49.87490 9.36439 37225 ft 473 kts 136°
2026-04-27 11:55 49.82943 9.43812 37223 ft 473 kts 136°
2026-04-27 11:56 49.78399 9.51180 37209 ft 473 kts 136°
2026-04-27 11:56 49.73853 9.58530 37219 ft 473 kts 136°
2026-04-27 11:57 49.69296 9.65866 37221 ft 473 kts 136°
2026-04-27 11:57 49.64728 9.73191 37224 ft 473 kts 136°
2026-04-27 11:58 49.60164 9.80516 37233 ft 474 kts 136°
2026-04-27 11:58 49.55590 9.87821 37238 ft 474 kts 136°
2026-04-27 11:59 49.51012 9.95110 37228 ft 474 kts 136°
2026-04-27 11:59 49.46426 10.02391 37237 ft 474 kts 136°
2026-04-27 12:00 49.41835 10.09661 37237 ft 474 kts 136°
2026-04-27 12:00 49.37239 10.16916 37237 ft 474 kts 136°
2026-04-27 12:01 49.32641 10.24162 37245 ft 474 kts 136°
2026-04-27 12:01 49.28031 10.31385 37225 ft 474 kts 136°
2026-04-27 12:02 49.23310 10.38295 37233 ft 471 kts 145°
2026-04-27 12:02 49.17794 10.43602 37241 ft 468 kts 152°
2026-04-27 12:03 49.12190 10.48688 37251 ft 469 kts 152°
2026-04-27 12:03 49.06591 10.53790 37253 ft 469 kts 152°
2026-04-27 12:04 49.00982 10.58885 37235 ft 469 kts 152°
2026-04-27 12:04 48.95365 10.63969 37254 ft 470 kts 152°
2026-04-27 12:05 48.89733 10.69045 37246 ft 471 kts 152°
2026-04-27 12:05 48.84086 10.74112 37238 ft 472 kts 151°
2026-04-27 12:06 48.78966 10.80352 37212 ft 476 kts 133°
2026-04-27 12:06 48.74549 10.87821 37218 ft 476 kts 133°
2026-04-27 12:07 48.70117 10.95261 37237 ft 476 kts 133°
2026-04-27 12:07 48.65665 11.02667 37231 ft 476 kts 133°
2026-04-27 12:08 48.61215 11.10060 37227 ft 476 kts 133°
2026-04-27 12:08 48.56765 11.17453 37224 ft 476 kts 133°
2026-04-27 12:09 48.52314 11.24836 37210 ft 475 kts 133°
2026-04-27 12:09 48.47859 11.32202 37213 ft 475 kts 133°
2026-04-27 12:10 48.43395 11.39547 37219 ft 475 kts 133°
2026-04-27 12:10 48.38966 11.46829 37222 ft 475 kts 133°
2026-04-27 12:11 48.34499 11.54144 37225 ft 475 kts 133°
2026-04-27 12:11 48.30025 11.61449 37226 ft 475 kts 133°
2026-04-27 12:12 48.25527 11.68706 37235 ft 475 kts 134°
2026-04-27 12:12 48.20752 11.75548 37227 ft 474 kts 139°
2026-04-27 12:13 48.15806 11.82087 37220 ft 474 kts 139°
2026-04-27 12:13 48.10871 11.88657 37213 ft 475 kts 138°
2026-04-27 12:14 48.05995 11.95312 37207 ft 475 kts 138°
2026-04-27 12:14 48.01136 12.01995 37198 ft 475 kts 137°
2026-04-27 12:15 47.96263 12.08650 37201 ft 475 kts 138°
2026-04-27 12:15 47.91373 12.15262 37205 ft 475 kts 138°
2026-04-27 12:16 47.87301 12.20749 37205 ft 475 kts 138°
2026-04-27 12:16 47.82410 12.27350 37211 ft 475 kts 138°
2026-04-27 12:17 47.77519 12.33940 37206 ft 475 kts 138°
2026-04-27 12:17 47.72622 12.40514 37198 ft 474 kts 138°
2026-04-27 12:18 47.67723 12.47070 37196 ft 474 kts 138°
2026-04-27 12:18 47.62858 12.53573 37196 ft 474 kts 135°
2026-04-27 12:19 47.58365 12.60689 37182 ft 472 kts 132°
2026-04-27 12:19 47.53863 12.67890 37190 ft 473 kts 132°
2026-04-27 12:20 47.49413 12.74963 37174 ft 473 kts 133°
2026-04-27 12:20 47.44925 12.82064 37170 ft 472 kts 132°
2026-04-27 12:21 47.40444 12.89156 37173 ft 472 kts 132°
2026-04-27 12:21 47.35960 12.96242 37176 ft 472 kts 132°
2026-04-27 12:22 47.31477 13.03303 37180 ft 471 kts 132°
2026-04-27 12:22 47.26993 13.10348 37172 ft 471 kts 133°
2026-04-27 12:23 47.22515 13.17370 37164 ft 470 kts 133°
2026-04-27 12:23 47.18034 13.24366 37158 ft 469 kts 133°
2026-04-27 12:24 47.13557 13.31331 37167 ft 469 kts 133°
2026-04-27 12:24 47.09078 13.38288 37161 ft 469 kts 132°
2026-04-27 12:25 47.04633 13.45184 37151 ft 468 kts 133°
2026-04-27 12:25 47.00126 13.52155 37147 ft 468 kts 133°
2026-04-27 12:26 46.95679 13.59016 37133 ft 467 kts 133°
2026-04-27 12:26 46.91204 13.65891 37149 ft 467 kts 133°
2026-04-27 12:27 46.86725 13.72763 37146 ft 466 kts 133°
2026-04-27 12:27 46.82252 13.79615 37145 ft 466 kts 133°
2026-04-27 12:28 46.77764 13.86457 37148 ft 466 kts 133°
2026-04-27 12:28 46.73271 13.93282 37132 ft 467 kts 133°
2026-04-27 12:29 46.68774 14.00100 37146 ft 467 kts 133°
2026-04-27 12:29 46.64280 14.06915 37169 ft 466 kts 133°
2026-04-27 12:30 46.59788 14.13717 37172 ft 466 kts 133°
2026-04-27 12:30 46.55294 14.20500 37172 ft 466 kts 133°
2026-04-27 12:31 46.50787 14.27261 37185 ft 466 kts 133°
2026-04-27 12:31 46.46284 14.34004 37158 ft 465 kts 134°
2026-04-27 12:32 46.41786 14.40734 37164 ft 465 kts 134°
2026-04-27 12:32 46.37281 14.47447 37166 ft 464 kts 134°
2026-04-27 12:33 46.32774 14.54146 37166 ft 465 kts 134°
2026-04-27 12:33 46.28258 14.60851 37177 ft 465 kts 133°
2026-04-27 12:34 46.23744 14.67550 37173 ft 465 kts 134°
2026-04-27 12:34 46.19223 14.74227 37170 ft 465 kts 134°
2026-04-27 12:35 46.14692 14.80887 37179 ft 465 kts 134°
2026-04-27 12:35 46.10163 14.87543 37189 ft 465 kts 134°
2026-04-27 12:36 46.05626 14.94192 37180 ft 465 kts 134°
2026-04-27 12:36 46.01086 15.00832 37178 ft 465 kts 134°
2026-04-27 12:37 45.96572 15.07425 37173 ft 465 kts 134°
2026-04-27 12:37 45.92022 15.14043 37180 ft 465 kts 134°
2026-04-27 12:38 45.87464 15.20645 37196 ft 465 kts 134°
2026-04-27 12:38 45.82909 15.27230 37196 ft 465 kts 134°
2026-04-27 12:39 45.78345 15.33808 37196 ft 465 kts 135°
2026-04-27 12:39 45.73233 15.39486 37193 ft 466 kts 144°
2026-04-27 12:40 45.67947 15.44849 37182 ft 466 kts 144°
2026-04-27 12:40 45.62668 15.50215 37190 ft 466 kts 144°
2026-04-27 12:41 45.57384 15.55578 37185 ft 466 kts 144°
2026-04-27 12:41 45.52096 15.60928 37185 ft 466 kts 144°
2026-04-27 12:42 45.46804 15.66268 37179 ft 466 kts 144°
2026-04-27 12:42 45.41514 15.71595 37204 ft 466 kts 144°
2026-04-27 12:43 45.36216 15.76912 37190 ft 466 kts 144°
2026-04-27 12:43 45.30919 15.82219 37200 ft 466 kts 144°
2026-04-27 12:44 45.25618 15.87515 37197 ft 466 kts 144°
2026-04-27 12:44 45.20660 15.93303 37190 ft 464 kts 132°
2026-04-27 12:45 45.16228 15.99954 37201 ft 464 kts 132°
2026-04-27 12:45 45.11781 16.06581 37198 ft 464 kts 133°
2026-04-27 12:46 45.07330 16.13198 37191 ft 464 kts 133°
2026-04-27 12:46 45.02876 16.19807 37189 ft 464 kts 133°
2026-04-27 12:47 44.98414 16.26407 37189 ft 464 kts 133°
2026-04-27 12:47 44.93955 16.32988 37190 ft 464 kts 133°
2026-04-27 12:48 44.89496 16.39568 37183 ft 464 kts 133°
2026-04-27 12:48 44.85040 16.46140 37182 ft 464 kts 133°
2026-04-27 12:49 44.80575 16.52691 37181 ft 464 kts 133°
2026-04-27 12:49 44.76100 16.59229 37181 ft 463 kts 133°
2026-04-27 12:50 44.71626 16.65757 37167 ft 463 kts 133°
2026-04-27 12:50 44.67153 16.72272 37164 ft 463 kts 133°
2026-04-27 12:51 44.62677 16.78780 37163 ft 463 kts 133°
2026-04-27 12:51 44.58193 16.85275 37174 ft 463 kts 134°
2026-04-27 12:52 44.53429 16.91336 37165 ft 463 kts 146°
2026-04-27 12:52 44.47968 16.96120 37151 ft 463 kts 148°
2026-04-27 12:53 44.39769 17.03285 37146 ft 463 kts 148°
2026-04-27 12:53 44.34304 17.08049 37162 ft 463 kts 148°
2026-04-27 12:54 44.28832 17.12814 37151 ft 463 kts 149°
2026-04-27 12:54 44.23354 17.17564 37145 ft 463 kts 149°
2026-04-27 12:55 44.17873 17.22296 37145 ft 464 kts 149°
2026-04-27 12:55 44.12388 17.27018 37145 ft 463 kts 149°
2026-04-27 12:56 44.06901 17.31736 37143 ft 463 kts 149°
2026-04-27 12:56 44.01416 17.36434 37136 ft 463 kts 149°
2026-04-27 12:57 43.95933 17.41130 37135 ft 463 kts 149°
2026-04-27 12:57 43.90453 17.45815 37135 ft 463 kts 149°
2026-04-27 12:58 43.84967 17.50495 37130 ft 463 kts 149°
2026-04-27 12:58 43.79517 17.55139 37125 ft 463 kts 150°
2026-04-27 12:59 43.74027 17.59799 37128 ft 463 kts 150°
2026-04-27 12:59 43.68535 17.64450 37128 ft 463 kts 150°
2026-04-27 13:00 43.63042 17.69095 37129 ft 463 kts 150°
2026-04-27 13:00 43.57544 17.73729 37116 ft 463 kts 150°
2026-04-27 13:01 43.52052 17.78359 37127 ft 463 kts 150°
2026-04-27 13:01 43.46554 17.82980 37102 ft 463 kts 150°
2026-04-27 13:02 43.41054 17.87584 37094 ft 463 kts 150°
2026-04-27 13:02 43.35551 17.92182 37091 ft 463 kts 150°
2026-04-27 13:03 43.30048 17.96776 37090 ft 463 kts 150°
2026-04-27 13:03 43.24540 18.01371 37094 ft 463 kts 150°
2026-04-27 13:04 43.19033 18.05949 37104 ft 463 kts 151°
2026-04-27 13:04 43.14451 18.09741 37098 ft 463 kts 151°
2026-04-27 13:05 43.08940 18.14293 37113 ft 463 kts 151°
2026-04-27 13:05 43.02531 18.19587 37124 ft 463 kts 151°
2026-04-27 13:06 42.97916 18.23399 37122 ft 463 kts 151°
2026-04-27 13:06 42.92400 18.27946 37113 ft 463 kts 152°
2026-04-27 13:07 42.86869 18.32470 37120 ft 463 kts 152°
2026-04-27 13:07 42.81340 18.36990 37119 ft 463 kts 152°
2026-04-27 13:08 42.75813 18.41505 37120 ft 463 kts 152°
2026-04-27 13:08 42.70283 18.46020 37103 ft 463 kts 152°
2026-04-27 13:09 42.64756 18.50524 37112 ft 463 kts 152°
2026-04-27 13:09 42.59263 18.54985 37114 ft 463 kts 152°
2026-04-27 13:10 42.53732 18.59468 37096 ft 463 kts 152°
2026-04-27 13:10 42.48199 18.63932 37080 ft 463 kts 152°
2026-04-27 13:11 42.42664 18.68393 37084 ft 463 kts 152°
2026-04-27 13:11 42.37135 18.72852 37087 ft 463 kts 152°
2026-04-27 13:12 42.31602 18.77306 37107 ft 463 kts 152°
2026-04-27 13:12 42.25809 18.80933 37092 ft 456 kts 168°
2026-04-27 13:13 42.19692 18.83157 37100 ft 455 kts 168°
2026-04-27 13:13 42.13577 18.85406 37100 ft 456 kts 168°
2026-04-27 13:14 42.07460 18.87659 37102 ft 456 kts 168°
2026-04-27 13:14 42.01342 18.89899 37089 ft 456 kts 168°
2026-04-27 13:15 41.95224 18.92130 37100 ft 456 kts 168°
2026-04-27 13:15 41.89106 18.94358 37105 ft 456 kts 168°
2026-04-27 13:16 41.82986 18.96590 37096 ft 456 kts 168°
2026-04-27 13:16 41.76909 18.98800 37104 ft 455 kts 168°
2026-04-27 13:17 41.70793 19.01007 37104 ft 455 kts 168°
2026-04-27 13:17 41.64678 19.03217 37106 ft 455 kts 168°
2026-04-27 13:18 41.58561 19.05430 37098 ft 455 kts 168°
2026-04-27 13:18 41.52448 19.07646 37105 ft 455 kts 168°
2026-04-27 13:19 41.46334 19.09847 37105 ft 455 kts 167°
2026-04-27 13:19 41.40349 19.12699 37104 ft 457 kts 163°
2026-04-27 13:20 41.34377 19.15606 37098 ft 457 kts 163°
2026-04-27 13:20 41.28406 19.18507 37103 ft 457 kts 163°
2026-04-27 13:21 41.22440 19.21413 37106 ft 457 kts 163°
2026-04-27 13:21 41.16480 19.24319 37106 ft 456 kts 163°
2026-04-27 13:22 41.10515 19.27215 37104 ft 456 kts 163°
2026-04-27 13:22 41.04552 19.30101 37103 ft 456 kts 163°
2026-04-27 13:23 40.98589 19.32979 37100 ft 456 kts 163°
2026-04-27 13:23 40.92624 19.35861 37095 ft 456 kts 163°
2026-04-27 13:24 40.89684 19.37278 36886 ft 456 kts 163°
2026-04-27 13:24 40.86703 19.38709 36638 ft 455 kts 163°
2026-04-27 13:24 40.83728 19.40135 36361 ft 455 kts 163°
2026-04-27 13:24 40.80751 19.41563 36102 ft 455 kts 163°
2026-04-27 13:25 40.77772 19.42993 35850 ft 456 kts 163°
2026-04-27 13:25 40.74794 19.44421 35599 ft 456 kts 163°
2026-04-27 13:25 40.71814 19.45848 35338 ft 456 kts 163°
2026-04-27 13:25 40.68831 19.47275 35082 ft 456 kts 163°
2026-04-27 13:26 40.65849 19.48701 34836 ft 457 kts 163°
2026-04-27 13:26 40.62856 19.50131 34175 ft 457 kts 162°
2026-04-27 13:26 40.59878 19.51554 33558 ft 453 kts 162°
2026-04-27 13:26 40.56925 19.52964 32976 ft 449 kts 162°
2026-04-27 13:27 40.54006 19.54354 32409 ft 445 kts 162°
2026-04-27 13:27 40.51108 19.55732 31850 ft 441 kts 162°
2026-04-27 13:27 40.48233 19.57097 31296 ft 438 kts 162°
2026-04-27 13:27 40.45376 19.58448 30750 ft 435 kts 162°
2026-04-27 13:28 40.42533 19.59792 30209 ft 433 kts 162°
2026-04-27 13:28 40.39710 19.61124 29618 ft 430 kts 162°
2026-04-27 13:28 40.36910 19.62446 29096 ft 425 kts 162°
2026-04-27 13:28 40.34141 19.63751 28583 ft 421 kts 162°
2026-04-27 13:29 40.31398 19.65043 28077 ft 417 kts 162°
2026-04-27 13:29 40.28681 19.66322 27585 ft 413 kts 162°
2026-04-27 13:29 40.25991 19.67589 27098 ft 409 kts 162°
2026-04-27 13:29 40.23327 19.68846 26631 ft 406 kts 162°
2026-04-27 13:30 40.20681 19.70094 26169 ft 403 kts 162°
2026-04-27 13:30 40.18052 19.71330 25702 ft 400 kts 162°
2026-04-27 13:30 40.15441 19.72556 25242 ft 397 kts 162°
2026-04-27 13:30 40.12848 19.73772 24765 ft 395 kts 162°
2026-04-27 13:31 40.10267 19.74981 24287 ft 393 kts 162°
2026-04-27 13:31 40.07731 19.76170 23812 ft 392 kts 162°
2026-04-27 13:31 40.05136 19.77383 23267 ft 390 kts 162°
2026-04-27 13:31 40.02590 19.78571 22772 ft 387 kts 162°
2026-04-27 13:32 40.00098 19.79735 22289 ft 384 kts 162°
2026-04-27 13:32 39.97592 19.80905 21804 ft 381 kts 163°
2026-04-27 13:32 39.95106 19.82063 21315 ft 379 kts 163°
2026-04-27 13:32 39.92629 19.83219 20837 ft 376 kts 163°
2026-04-27 13:33 39.90170 19.84367 20347 ft 374 kts 163°
2026-04-27 13:33 39.87732 19.85534 19871 ft 373 kts 162°
2026-04-27 13:33 39.85304 19.86703 19392 ft 370 kts 166°
2026-04-27 13:33 39.82786 19.87076 18905 ft 362 kts 188°
2026-04-27 13:34 39.80392 19.86222 18215 ft 357 kts 211°
2026-04-27 13:34 39.78483 19.84251 17748 ft 347 kts 232°
2026-04-27 13:34 39.77159 19.81679 17306 ft 341 kts 240°
2026-04-27 13:34 39.75818 19.79153 16866 ft 339 kts 235°
2026-04-27 13:35 39.74369 19.76753 16429 ft 337 kts 233°
2026-04-27 13:35 39.72849 19.74439 15990 ft 336 kts 230°
2026-04-27 13:35 39.71255 19.72237 15557 ft 334 kts 227°
2026-04-27 13:35 39.69565 19.70166 15115 ft 334 kts 223°
2026-04-27 13:36 39.67783 19.68238 14675 ft 333 kts 219°
2026-04-27 13:36 39.65911 19.66463 14241 ft 333 kts 216°
2026-04-27 13:36 39.63964 19.64840 13781 ft 332 kts 212°
2026-04-27 13:36 39.61952 19.63377 13329 ft 331 kts 208°
2026-04-27 13:37 39.59885 19.62084 12890 ft 329 kts 205°
2026-04-27 13:37 39.57776 19.60967 12444 ft 326 kts 201°
2026-04-27 13:37 39.55634 19.60020 12000 ft 324 kts 198°
2026-04-27 13:37 39.53467 19.59237 11553 ft 322 kts 194°
2026-04-27 13:38 39.51284 19.58624 11197 ft 317 kts 191°
2026-04-27 13:38 39.49191 19.58197 11067 ft 293 kts 188°
2026-04-27 13:38 39.47242 19.57937 10942 ft 271 kts 185°
2026-04-27 13:38 39.45418 19.57820 10698 ft 256 kts 179°
2026-04-27 13:39 39.43714 19.58238 10427 ft 244 kts 159°
2026-04-27 13:39 39.42269 19.59314 10057 ft 238 kts 140°
2026-04-27 13:39 39.41194 19.60909 9551 ft 235 kts 121°
2026-04-27 13:39 39.40573 19.62846 9049 ft 234 kts 103°
2026-04-27 13:40 39.40373 19.64921 8525 ft 232 kts 96°
2026-04-27 13:40 39.40217 19.66994 8015 ft 231 kts 97°
2026-04-27 13:40 39.40057 19.69049 7535 ft 229 kts 97°
2026-04-27 13:40 39.39896 19.71087 7054 ft 227 kts 97°
2026-04-27 13:41 39.39740 19.73107 6580 ft 225 kts 95°
2026-04-27 13:41 39.39742 19.75097 6093 ft 224 kts 90°
2026-04-27 13:41 39.39774 19.77098 5608 ft 222 kts 91°
2026-04-27 13:41 39.39801 19.79083 5136 ft 220 kts 91°
2026-04-27 13:42 39.39826 19.81050 4671 ft 218 kts 92°
2026-04-27 13:42 39.39850 19.82987 4312 ft 213 kts 92°
2026-04-27 13:42 39.39875 19.84915 4170 ft 215 kts 92°
2026-04-27 13:42 39.39905 19.86853 4054 ft 216 kts 89°
2026-04-27 13:43 39.40186 19.88771 3944 ft 218 kts 76°
2026-04-27 13:43 39.40624 19.90649 3849 ft 218 kts 77°
2026-04-27 13:43 39.41055 19.92530 3748 ft 217 kts 77°
2026-04-27 13:43 39.41481 19.94403 3646 ft 217 kts 77°
2026-04-27 13:44 39.42040 19.96212 3543 ft 220 kts 54°
2026-04-27 13:44 39.43314 19.97277 3370 ft 225 kts 12°
2026-04-27 13:44 39.44880 19.97187 3025 ft 228 kts 348°
2026-04-27 13:44 39.46415 19.96646 2710 ft 229 kts 341°
2026-04-27 13:45 39.47925 19.95994 2386 ft 226 kts 340°
2026-04-27 13:45 39.49363 19.95364 2066 ft 210 kts 340°
2026-04-27 13:45 39.50681 19.94804 1820 ft 189 kts 341°
2026-04-27 13:45 39.51871 19.94317 1537 ft 169 kts 341°
2026-04-27 13:46 39.52930 19.93895 1343 ft 151 kts 341°
2026-04-27 13:46 39.53867 19.93400 1095 ft 141 kts 333°
2026-04-27 13:46 39.54741 19.92889 881 ft 135 kts 334°
2026-04-27 13:46 39.55625 19.92454 740 ft 137 kts 343°
2026-04-27 13:47 39.56550 19.92147 571 ft 138 kts 348°
2026-04-27 13:47 39.57497 19.91913 412 ft 139 kts 349°
2026-04-27 13:47 39.58447 19.91661 222 ft 141 kts 351°
2026-04-27 13:47 39.59415 19.91415 43 ft 141 kts 349°
2026-04-27 13:48 39.60254 19.91198 21 ft 90 kts 349°
2026-04-27 13:48 39.60657 19.91094 18 ft 49 kts 349°
2026-04-27 13:48 39.60918 19.91026 21 ft 26 kts 348°
2026-04-27 13:48 39.61029 19.91033 22 ft 15 kts 49°
2026-04-27 13:49 39.61053 19.91120 19 ft 8 kts 137°
2026-04-27 13:49 39.60968 19.91147 21 ft 16 kts 168°
2026-04-27 13:49 39.60863 19.91176 18 ft 10 kts 168°
2026-04-27 13:49 39.60823 19.91186 18 ft 10 kts 168°
2026-04-27 13:50 39.60731 19.91211 19 ft 15 kts 168°
2026-04-27 13:50 39.60633 19.91240 20 ft 10 kts 159°
2026-04-27 13:50 39.60587 19.91290 19 ft 8 kts 134°
2026-04-27 13:50 39.60585 19.91340 19 ft 5 kts 81°
2026-04-27 13:51 39.60591 19.91376 19 ft 0 kts 79°